Location: Normandy Village
(37.8755°N, 122.2655°W)
Time: 00:21:16
(UTC+00:00)

Cosmos 1656 - Pass Details

Date: 22 September 2019
Orbit: 799 x 849 km, 71.1° (Epoch: 20 October)

Event Time Altitude Azimuth Distance (km) Brightness Sun altitude
Rises 12:33:23 0° 188° (S) 3,392 6.6 -17.1°
Reaches altitude 10° 12:35:51 10° 184° (S) 2,463 5.9 -16.6°
Maximum altitude 12:41:22 55° 107° (ESE) 1,011 4.4 -15.6°
Drops below altitude 10° 12:46:54 10° 31° (NNE) 2,473 6.8 -14.5°
Sets 12:49:23 0° 27° (NNE) 3,407 7.4 -14.0°
